Regional Weather Roundup
Issued by NWS

Home | Current Version | Previous Version | Text Only | Print | Product List | Glossary On
Versions: 1 2 3 4 5 6 7 8 9 10 11 12 13 14 15 16 17 18 19 20 21 22 23 24 25 26 27 28 29 30 31 32 33 34 35 36 37 38 39 40 41 42 43 44 45 46 47 48 49 50
000
ASUS43 KMKX 260121
RWRWI

WISCONSIN REGIONAL WEATHER ROUNDUP
NATIONAL WEATHER SERVICE MILWAUKEE/SULLIVAN WI
800 PM CDT SAT OCT 25 2014

NOTE: "FAIR" INDICATES FEW OR NO CLOUDS BELOW 12,000 FEET WITH NO
SIGNIFICANT WEATHER AND/OR OBSTRUCTIONS TO VISIBILITY.

WIZ001-002-006>008-014>016-023>028-260200-
NORTHWEST WISCONSIN

CITY           SKY/WX    TMP DP  RH WIND       PRES   REMARKS
SUPERIOR ARPT  CLEAR     51  26  37 W10       29.99R
ASHLAND        CLEAR     49  27  42 W10G16    29.95R
HAYWARD        CLEAR     51  23  33 VRB3      29.98R
SIREN          CLEAR     49  24  37 W6        30.01S
CUMBERLAND     CLEAR     48  23  37 W9        30.00S
RICE LAKE      CLEAR     49  24  37 W6        30.01S
CHETEK         CLEAR     52  24  33 W7        30.00R
LADYSMITH      CLEAR     52  22  30 NW13G18   29.99R
EAU CLAIRE     CLEAR     52  26  36 W7        30.00R
MENOMONIE      CLEAR     52  26  35 W6        30.01R
NEW RICHMOND   CLEAR     49  26  41 W7        30.03S
OSCEOLA        CLEAR     50  27  40 W8        30.05S
$$

WIZ003>005-009-010-017-018-260200-
NORTH CENTRAL WISCONSIN

CITY           SKY/WX    TMP DP  RH WIND       PRES   REMARKS
MANITOWISH WTR CLEAR     49  25  39 NW12G21   29.91R
ARBOR VITAE    CLEAR     52  24  33 NW8       29.91S
WOODRUFF       CLEAR     52  24  33 NW8       29.91S
RHINELANDER    CLEAR     51  21  30 NW16G25   29.91R
EAGLE RIVER    CLEAR     49  20  31 W9        29.90R
LAND O LAKES   CLEAR     51  23  33 NW9G16    29.90R
PHILLIPS       CLEAR     50  22  33 NW7       29.94R
TOMAHAWK       CLEAR     48  20  33 CALM      29.94R
MEDFORD        CLEAR     46  28  48 W7        29.95R
MERRILL        CLEAR     52  22  30 NW12      29.93R
$$

WIZ029-030-035-036-043>047-260200-
CENTRAL WISCONSIN

CITY           SKY/WX    TMP DP  RH WIND       PRES   REMARKS
WAUSAU         CLEAR     50  28  42 W10       29.92R
MOSINEE        CLEAR     52  27  37 W12       29.93R
MARSHFIELD     CLEAR     50  28  42 W8        29.95R
STEVENS POINT  CLEAR     51  28  40 W7        29.94R
WAUPACA        CLEAR     54  29  38 W8        29.93R
WAUTOMA        CLOUDY    52  28  39 W7        29.95R
WISC RAPIDS    CLEAR     53  27  36 W9        29.96R
CAMP DOUGLAS   NOT AVBL
$$

WIZ011>013-019>022-031-037>040-048>050-260200-
NORTHEAST WISCONSIN

CITY           SKY/WX    TMP DP  RH WIND       PRES   REMARKS
ANTIGO         CLEAR     48  25  40 NW10      29.91R
SHAWANO        CLEAR     55  27  33 W6        29.89R
OCONTO         CLEAR     50  27  41 W6        29.86R
STURGEON BAY   CLEAR     55  27  33 NW15      29.86R
GREEN BAY      CLEAR     53  32  44 W10       29.89R
MANITOWOC      CLEAR     56  30  37 W14       29.88R
APPLETON       CLEAR     52  28  40 W12       29.91R
CLINTONVILLE   CLEAR     52  30  43 W7        29.90R
OSHKOSH        CLEAR     54  30  40 W6        29.92R
$$

WIZ032>034-041-042-053>061-260200-
SOUTHWEST WISCONSIN

CITY           SKY/WX    TMP DP  RH WIND       PRES   REMARKS
LA CROSSE      CLEAR     55  30  38 W8        30.01R
SPARTA         CLEAR     52  25  34 W5        30.00S
VIROQUA        CLEAR     52  27  38 W6        30.01R
BOSCOBEL       CLEAR     53  28  38 SW3       30.02R
PRAIRIE DU CHI CLEAR     55  28  35 CALM      30.02R
PLATTEVILLE    CLEAR     56  28  35 NW7       30.02R
$$

WIZ056-057-062-063-064-067-068-260200-
SOUTH CENTRAL WISCONSIN

CITY           SKY/WX    TMP DP  RH WIND       PRES   REMARKS
REEDSBURG      CLEAR     53  30  42 W6        29.98R
BARABOO/DELLS  CLEAR     53  25  33 W5        29.98R
LONE ROCK      CLEAR     60  27  28 W8        30.00R
MINERAL POINT  CLEAR     55  23  28 NW8       30.00S
MADISON        CLEAR     56  27  32 W6        29.98R
MIDDLETON      CLEAR     53  25  33 W7        29.99R
WATERTOWN      CLEAR     53  31  43 W7        29.95R
MONROE         CLEAR     55  28  35 W13       29.99R
JANESVILLE     CLEAR     48  32  53 W7        29.97R
$$

WIZ051-052-058>065-066-070>072-260200-
SOUTHEAST WISCONSIN

CITY           SKY/WX    TMP DP  RH WIND       PRES   REMARKS
MILWAUKEE      CLEAR     61  24  24 NW12G23   29.93R
WAUKESHA       CLEAR     55  27  33 W9        29.95R
MILWAUKEE/TIMM CLEAR     57  25  28 W10       29.93R
RACINE         CLEAR     59  27  29 W9        29.95R
BURLINGTON     CLEAR     51  28  39 NW9       29.95R
KENOSHA        CLEAR     55  30  38 W8        29.94R
FOND DU LAC    CLEAR     54  28  36 W8        29.93R
SHEBOYGAN      CLEAR     55  29  36 W12       29.90R
WEST BEND      CLEAR     55  23  28 W13       29.93R
JUNEAU         CLEAR     54  29  38 W7        29.96R
$$

LSZ147-162-260200-
LAKE SUPERIOR

STATION/POSITION TIME  TEMP    WIND        PRES    WAVE
                       AIR SEA DIR/SP/G            HT/PER
                 (UTC) (F)     (DEG/KT/KT) (MB)    (FT/S)
W MID LAKE BUOY  0050   50 46  280/ 16/ 21 1011.4R   4/ 5
DEVILS ISLAND    0100   53     290/ 18/ 21 1013.5R
PORT WING        0000   54     270/ 14/ 22 1014.2R
SAXON HARBOR     0000   56     250/  4/ 13 1013.2R
$$

LMZ867-665-643>646-260200-
LAKE MICHIGAN

STATION/POSITION TIME  TEMP    WIND        PRES    WAVE
                       AIR SEA DIR/SP/G            HT/PER
                 (UTC) (F)     (DEG/KT/KT) (MB)    (FT/S)
CHAMBERS ISLAND  0000   58     310/  8/ 15 1010.2R
N MID LAKE BUOY  0050   54 51  300/ 16/ 19 1009.2R   3/ 4
NORTHPORT PIER   0000   56     310/ 16/ 20 1009.5R
SISTER BAY       0013          340/ 21/ 26   N/A
KEWAUNEE LAKESHO 0100   54     280/  5/  7 1010.5R
SHEBOYGAN LAKESH 0100   59 51  280/ 14/ 20 1012.6R
PORT WASHINGTON  0000   61     280/ 11/ 16 1012.9
ATWATER BUOY     0100   58     280/ 12/ 14 1014.4R
MILWAUKEE LAKESH 0100   61     290/ 10/ 13   N/A
S MID LAKE BUOY  0050   58 54  290/ 16/ 17 1012.5R   2/ 4
KENOSHA   LAKESH 0100   59     290/  8/ 11 1013.5R
$$

TC  - TEMPERATURE IN CELSIUS
VSB - VISIBILITY IN STATUTE MILES
WCI - WIND CHILL INDEX
HX  - HEAT INDEX




USA.gov is the U.S. government's official web portal to all federal, state and local government web resources and services.